K4MET Weather Reports


Display with metric or nautical units.
time (UTC)temp
F
wind
direction
speed
MPH
gust
MPH
rain 1hr
in
rain 24hr
in
rain mn
in
humidity
%
barometer
mb
20260504151008 66 350 1.0 3.0 0.00 0.00 0.00 53 1015.8
20260504150508 66 225 1.0 6.0 0.00 0.00 0.00 51 1015.8
20260504141007 56 5 1.0 3.0 0.00 0.00 0.00 74 1015.9
20260504140506 55 205 0.0 6.0 0.00 0.00 0.00 77 1015.9
20260504130505 48 309 0.0 0.0 0.00 0.00 0.00 93 1015.7
20260504100459 45 309 0.0 0.0 0.00 0.00 0.00 88 1015.3
20260504081956 47 309 0.0 0.0 0.00 0.00 0.00 85 1015.3
20260504081456 47 309 0.0 0.0 0.00 0.00 0.00 85 1015.3
20260504080956 47 309 0.0 0.0 0.00 0.00 0.00 85 1015.3
20260504080456 47 309 0.0 0.0 0.00 0.00 0.00 85 1015.3
20260504050520 51 309 0.0 0.0 0.00 0.00 0.00 76 1016.1
20260504045020 52 309 0.0 0.0 0.00 0.00 0.00 74 1016.0
20260504044520 52 309 0.0 0.0 0.00 0.00 0.00 74 1016.0
20260504043519 52 309 0.0 0.0 0.00 0.00 0.00 73 1016.0
20260504043019 52 309 0.0 0.0 0.00 0.00 0.00 73 1016.0
20260504042519 53 309 0.0 0.0 0.00 0.00 0.00 72 1016.1
20260504042019 53 309 0.0 0.0 0.00 0.00 0.00 72 1016.1
20260504041519 53 309 0.0 0.0 0.00 0.00 0.00 71 1016.1
20260504041019 53 309 0.0 0.0 0.00 0.00 0.00 71 1016.1
20260504040519 53 309 0.0 0.0 0.00 0.00 0.00 70 1016.1
20260504040018 53 309 0.0 0.0 0.00 0.00 0.00 70 1016.1
20260504035018 54 309 0.0 0.0 0.00 0.00 0.00 70 1016.1
20260504034518 54 309 0.0 0.0 0.00 0.00 0.00 70 1016.1
20260504033518 54 309 0.0 0.0 0.00 0.00 0.00 69 1016.3
20260504033018 54 309 0.0 0.0 0.00 0.00 0.00 69 1016.3
20260504032517 54 309 0.0 0.0 0.00 0.00 0.00 68 1016.2
20260504032017 55 309 0.0 0.0 0.00 0.00 0.00 68 1016.2
20260504031517 55 309 0.0 1.0 0.00 0.00 0.00 67 1016.2
20260504030017 55 309 0.0 0.0 0.00 0.00 0.00 65 1016.2
20260504025516 55 309 0.0 0.0 0.00 0.00 0.00 66 1016.1
20260504024516 56 309 0.0 0.0 0.00 0.00 0.00 66 1016.1
20260504023516 56 309 0.0 0.0 0.00 0.00 0.00 65 1016.0
20260504023016 56 309 0.0 0.0 0.00 0.00 0.00 65 1016.0
20260504022516 57 309 0.0 0.0 0.00 0.00 0.00 64 1015.9
20260504021515 57 309 0.0 0.0 0.00 0.00 0.00 63 1015.9
20260504021015 57 309 0.0 0.0 0.00 0.00 0.00 62 1015.5
20260504020515 57 309 0.0 0.0 0.00 0.00 0.00 62 1015.5
20260504015515 58 309 0.0 0.0 0.00 0.00 0.00 61 1015.4
20260504015015 58 309 0.0 1.0 0.00 0.00 0.00 60 1015.4
20260504014514 58 309 0.0 1.0 0.00 0.00 0.00 59 1015.4
20260504014014 59 309 0.0 0.0 0.00 0.00 0.00 59 1015.4
20260504013014 59 309 0.0 0.0 0.00 0.00 0.00 58 1015.4
20260504012514 60 309 0.0 0.0 0.00 0.00 0.00 58 1015.2
20260504012013 60 309 0.0 0.0 0.00 0.00 0.00 57 1015.2
20260504011513 60 309 0.0 0.0 0.00 0.00 0.00 56 1015.2
20260504011013 61 309 0.0 0.0 0.00 0.00 0.00 54 1015.0
20260504010513 61 309 0.0 0.0 0.00 0.00 0.00 55 1015.0
20260504010013 62 309 0.0 0.0 0.00 0.00 0.00 54 1015.0
20260504005513 62 309 0.0 0.0 0.00 0.00 0.00 53 1014.8
20260504005013 63 309 0.0 1.0 0.00 0.00 0.00 52 1014.8
20260504004512 63 309 0.0 1.0 0.00 0.00 0.00 51 1014.8
20260504004013 64 309 0.0 0.0 0.00 0.00 0.00 50 1014.8
20260504003512 64 309 0.0 1.0 0.00 0.00 0.00 49 1014.8
20260504003012 65 309 0.0 1.0 0.00 0.00 0.00 48 1014.8
20260504002512 65 309 0.0 0.0 0.00 0.00 0.00 46 1014.8
20260504001512 66 309 0.0 1.0 0.00 0.00 0.00 43 1014.8
20260504001011 66 309 0.0 1.0 0.00 0.00 0.00 43 1014.7
20260504000011 67 309 0.0 2.0 0.00 0.00 0.00 42 1014.7
20260503235511 67 309 0.0 2.0 0.00 0.00 0.00 42 1014.7
20260503235011 67 309 0.0 3.0 0.00 0.00 0.00 42 1014.7
20260503234511 67 309 0.0 3.0 0.00 0.00 0.00 42 1014.7
20260503233510 67 322 0.0 4.0 0.00 0.00 0.00 42 1014.6
20260503233011 67 322 0.0 4.0 0.00 0.00 0.00 42 1014.6
20260503232510 67 296 2.0 4.0 0.00 0.00 0.00 40 1014.7
20260503231510 67 333 1.0 6.0 0.00 0.00 0.00 41 1014.7
20260503231010 67 9 2.0 6.0 0.00 0.00 0.00 39 1014.9
20260503230509 68 304 0.0 5.0 0.00 0.00 0.00 38 1014.9
20260503230010 68 351 2.0 5.0 0.00 0.00 0.00 38 1014.9
20260503225509 68 315 1.0 5.0 0.00 0.00 0.00 37 1014.8
20260503225009 68 306 1.0 5.0 0.00 0.00 0.00 38 1014.9
20260503223008 69 360 1.0 5.0 0.00 0.00 0.00 37 1014.8
20260503222508 69 257 2.0 5.0 0.00 0.00 0.00 37 1014.8
20260503222008 68 355 1.0 5.0 0.00 0.00 0.00 38 1014.8
20260503221508 69 360 3.0 4.0 0.00 0.00 0.00 37 1014.8
20260503221008 69 234 2.0 5.0 0.00 0.00 0.00 37 1014.9
20260503220008 69 302 1.0 7.0 0.00 0.00 0.00 35 1014.8
20260503215507 69 15 1.0 7.0 0.00 0.00 0.00 35 1014.8
20260503215008 69 11 0.0 4.0 0.00 0.00 0.00 38 1014.9
20260503214507 69 24 1.0 7.0 0.00 0.00 0.00 35 1014.8
20260503214007 69 286 3.0 7.0 0.00 0.00 0.00 37 1015.0
20260503213507 69 292 1.0 6.0 0.00 0.00 0.00 37 1015.0
20260503213007 68 290 5.0 6.0 0.00 0.00 0.00 37 1014.9
20260503212507 68 355 2.0 5.0 0.00 0.00 0.00 39 1015.0
20260503212007 69 16 3.0 9.0 0.00 0.00 0.00 37 1015.0
20260503211006 69 27 2.0 5.0 0.00 0.00 0.00 39 1015.1
20260503205506 68 324 2.0 7.0 0.00 0.00 0.00 39 1015.4
20260503204506 68 13 4.0 6.0 0.00 0.00 0.00 38 1015.3
20260503204005 68 340 1.0 5.0 0.00 0.00 0.00 41 1015.5
20260503203505 68 153 1.0 5.0 0.00 0.00 0.00 42 1015.5
20260503203005 69 240 2.0 6.0 0.00 0.00 0.00 39 1015.5
20260503202005 68 298 2.0 7.0 0.00 0.00 0.00 39 1015.8
20260503201505 68 317 0.0 6.0 0.00 0.00 0.00 41 1015.9
20260503201004 68 316 4.0 6.0 0.00 0.00 0.00 39 1016.0
20260503200004 68 304 1.0 7.0 0.00 0.00 0.00 39 1016.0
20260503195504 67 304 1.0 5.0 0.00 0.00 0.00 39 1016.1
20260503195005 67 10 1.0 9.0 0.00 0.00 0.00 40 1016.1
20260503194504 66 298 5.0 9.0 0.00 0.00 0.00 39 1016.1
20260503194004 66 208 3.0 5.0 0.00 0.00 0.00 42 1016.5
20260503193503 66 229 2.0 5.0 0.00 0.00 0.00 44 1016.6
20260503193004 67 38 2.0 8.0 0.00 0.00 0.00 42 1016.5
20260503192003 67 258 4.0 6.0 0.00 0.00 0.00 41 1016.6
20260503191503 66 211 2.0 3.0 0.00 0.00 0.00 43 1016.6
20260503190002 66 40 3.0 7.0 0.00 0.00 0.00 38 1017.0
20260503185502 66 252 7.0 7.0 0.00 0.00 0.00 38 1017.1
20260503185002 65 226 2.0 4.0 0.00 0.00 0.00 44 1017.0
20260503184502 65 211 2.0 3.0 0.00 0.00 0.00 42 1017.0
20260503183502 65 360 3.0 10.0 0.00 0.00 0.00 41 1017.3
20260503183001 65 263 4.0 5.0 0.00 0.00 0.00 41 1017.3
20260503182502 64 341 2.0 7.0 0.00 0.00 0.00 44 1017.5
20260503182001 64 297 2.0 7.0 0.00 0.00 0.00 42 1017.5
20260503181001 64 284 3.0 7.0 0.00 0.00 0.00 44 1017.5
20260503180501 64 271 1.0 4.0 0.00 0.00 0.00 44 1017.5
20260503180001 64 263 2.0 6.0 0.00 0.00 0.00 45 1017.5
20260503175500 64 254 0.0 6.0 0.00 0.00 0.00 45 1017.5
20260503175000 64 243 2.0 7.0 0.00 0.00 0.00 44 1017.5
20260503174000 63 257 2.0 7.0 0.00 0.00 0.00 45 1017.6
20260503173500 63 263 3.0 5.0 0.00 0.00 0.00 46 1017.6
20260503173000 63 201 1.0 6.0 0.00 0.00 0.00 47 1017.6
20260503172459 63 349 5.0 6.0 0.00 0.00 0.00 47 1017.8
20260503172000 63 296 3.0 6.0 0.00 0.00 0.00 47 1017.8
20260503171459 62 345 0.0 6.0 0.00 0.00 0.00 48 1017.8
20260503170959 62 277 3.0 6.0 0.00 0.00 0.00 48 1018.0